Year,Month,Day,Hour,Minute,Value (Times are PST for temperature in C)
2010,07,07,00,00,15.20
2010,07,07,00,01,15.20
2010,07,07,00,02,15.20
2010,07,07,00,03,15.20
2010,07,07,00,04,15.10
2010,07,07,00,05,15.10
2010,07,07,00,06,15.10
2010,07,07,00,07,15.00
2010,07,07,00,08,15.00
2010,07,07,00,09,15.00
2010,07,07,00,10,15.00
2010,07,07,00,11,15.00
2010,07,07,00,12,15.00
2010,07,07,00,13,15.00
2010,07,07,00,14,15.00
2010,07,07,00,15,15.00
2010,07,07,00,16,15.00
2010,07,07,00,17,15.00
2010,07,07,00,18,15.00
2010,07,07,00,19,15.00
2010,07,07,00,20,15.00
2010,07,07,00,21,15.00
2010,07,07,00,22,15.00
2010,07,07,00,23,15.00
2010,07,07,00,24,15.00
2010,07,07,00,25,15.00
2010,07,07,00,26,14.90
2010,07,07,00,27,14.90
2010,07,07,00,28,14.90
2010,07,07,00,29,14.80
2010,07,07,00,30,14.80
2010,07,07,00,31,14.80
2010,07,07,00,32,14.80
2010,07,07,00,33,14.80
2010,07,07,00,34,14.80
2010,07,07,00,35,14.80
2010,07,07,00,36,14.70
2010,07,07,00,37,14.70
2010,07,07,00,38,14.70
2010,07,07,00,39,14.70
2010,07,07,00,40,14.70
2010,07,07,00,41,14.70
2010,07,07,00,42,14.60
2010,07,07,00,43,14.60
2010,07,07,00,44,14.60
2010,07,07,00,45,14.60
2010,07,07,00,46,14.60
2010,07,07,00,47,14.60
2010,07,07,00,48,14.50
2010,07,07,00,49,14.50
2010,07,07,00,50,14.50
2010,07,07,00,51,14.50
2010,07,07,00,52,14.50
2010,07,07,00,53,14.40
2010,07,07,00,54,14.40
2010,07,07,00,55,14.40
2010,07,07,00,56,14.40
2010,07,07,00,57,14.40
2010,07,07,00,58,14.40
2010,07,07,00,59,14.40
2010,07,07,01,00,14.30
2010,07,07,01,01,14.30
2010,07,07,01,02,14.30
2010,07,07,01,06,14.30
2010,07,07,01,07,14.20
2010,07,07,01,08,14.20
2010,07,07,01,09,14.20
2010,07,07,01,10,14.20
2010,07,07,01,11,14.20
2010,07,07,01,12,14.20
2010,07,07,01,13,14.20
2010,07,07,01,14,14.20
2010,07,07,01,15,14.10
2010,07,07,01,16,14.10
2010,07,07,01,17,14.10
2010,07,07,01,18,14.10
2010,07,07,01,19,14.10
2010,07,07,01,20,14.10
2010,07,07,01,21,14.10
2010,07,07,01,22,14.10
2010,07,07,01,23,14.00
2010,07,07,01,24,14.00
2010,07,07,01,25,14.00
2010,07,07,01,26,14.00
2010,07,07,01,27,14.00
2010,07,07,01,28,13.90
2010,07,07,01,29,13.90
2010,07,07,01,30,13.90
2010,07,07,01,31,13.90
2010,07,07,01,32,13.90
2010,07,07,01,33,13.90
2010,07,07,01,34,13.90
2010,07,07,01,35,13.80
2010,07,07,01,36,13.80
2010,07,07,01,37,13.80
2010,07,07,01,38,13.80
2010,07,07,01,39,13.80
2010,07,07,01,40,13.80
2010,07,07,01,41,13.70
2010,07,07,01,42,13.70
2010,07,07,01,43,13.70
2010,07,07,01,44,13.70
2010,07,07,01,45,13.70
2010,07,07,01,46,13.70
2010,07,07,01,47,13.70
2010,07,07,01,48,13.70
2010,07,07,01,49,13.70
2010,07,07,01,50,13.70
2010,07,07,01,51,13.70
2010,07,07,01,52,13.60
2010,07,07,01,53,13.60
2010,07,07,01,54,13.60
2010,07,07,01,55,13.60
2010,07,07,01,56,13.60
2010,07,07,01,57,13.60
2010,07,07,01,58,13.60
2010,07,07,01,59,13.60
2010,07,07,02,00,13.50
2010,07,07,02,01,13.50
2010,07,07,02,02,13.50
2010,07,07,02,03,13.50
2010,07,07,02,04,13.50
2010,07,07,02,05,13.40
2010,07,07,02,06,13.40
2010,07,07,02,07,13.40
2010,07,07,02,08,13.40
2010,07,07,02,09,13.40
2010,07,07,02,10,13.40
2010,07,07,02,11,13.40
2010,07,07,02,12,13.40
2010,07,07,02,13,13.30
2010,07,07,02,14,13.30
2010,07,07,02,15,13.30
2010,07,07,02,16,13.30
2010,07,07,02,17,13.30
2010,07,07,02,18,13.30
2010,07,07,02,19,13.30
2010,07,07,02,20,13.30
2010,07,07,02,21,13.30
2010,07,07,02,22,13.20
2010,07,07,02,23,13.20
2010,07,07,02,24,13.20
2010,07,07,02,25,13.20
2010,07,07,02,26,13.20
2010,07,07,02,27,13.20
2010,07,07,02,28,13.20
2010,07,07,02,29,13.20
2010,07,07,02,30,13.20
2010,07,07,02,31,13.10
2010,07,07,02,32,13.10
2010,07,07,02,33,13.10
2010,07,07,02,34,13.10
2010,07,07,02,35,13.10
2010,07,07,02,36,13.10
2010,07,07,02,37,13.10
2010,07,07,02,38,13.10
2010,07,07,02,39,13.10
2010,07,07,02,40,13.10
2010,07,07,02,41,13.10
2010,07,07,02,42,13.10
2010,07,07,02,43,13.00
2010,07,07,02,44,13.00
2010,07,07,02,45,13.00
2010,07,07,02,46,13.00
2010,07,07,02,47,13.00
2010,07,07,02,48,13.00
2010,07,07,02,49,12.90
2010,07,07,02,50,12.90
2010,07,07,02,51,12.90
2010,07,07,02,52,12.90
2010,07,07,02,53,12.90
2010,07,07,02,54,12.90
2010,07,07,02,55,12.80
2010,07,07,02,56,12.80
2010,07,07,02,57,12.80
2010,07,07,02,58,12.80
2010,07,07,02,59,12.80
2010,07,07,03,00,12.80
2010,07,07,03,01,12.80
2010,07,07,03,02,12.80
2010,07,07,03,03,12.80
2010,07,07,03,04,12.80
2010,07,07,03,05,12.80
2010,07,07,03,06,12.80
2010,07,07,03,07,12.80
2010,07,07,03,08,12.80
2010,07,07,03,09,12.80
2010,07,07,03,10,12.70
2010,07,07,03,11,12.70
2010,07,07,03,12,12.70
2010,07,07,03,13,12.70
2010,07,07,03,14,12.70
2010,07,07,03,15,12.70
2010,07,07,03,16,12.70
2010,07,07,03,17,12.70
2010,07,07,03,18,12.70
2010,07,07,03,19,12.70
2010,07,07,03,20,12.70
2010,07,07,03,21,12.70
2010,07,07,03,22,12.70
2010,07,07,03,23,12.70
2010,07,07,03,24,12.60
2010,07,07,03,25,12.60
2010,07,07,03,26,12.60
2010,07,07,03,27,12.60
2010,07,07,03,28,12.60
2010,07,07,03,29,12.60
2010,07,07,03,30,12.60
2010,07,07,03,31,12.60
2010,07,07,03,32,12.60
2010,07,07,03,33,12.60
2010,07,07,03,34,12.60
2010,07,07,03,35,12.60
2010,07,07,03,36,12.60
2010,07,07,03,37,12.50
2010,07,07,03,38,12.50
2010,07,07,03,39,12.50
2010,07,07,03,40,12.50
2010,07,07,03,41,12.50
2010,07,07,03,42,12.50
2010,07,07,03,43,12.50
2010,07,07,03,44,12.40
2010,07,07,03,45,12.40
2010,07,07,03,46,12.40
2010,07,07,03,47,12.40
2010,07,07,03,48,12.40
2010,07,07,03,49,12.40
2010,07,07,03,50,12.40
2010,07,07,03,51,12.40
2010,07,07,03,52,12.40
2010,07,07,03,53,12.40
2010,07,07,03,54,12.40
2010,07,07,03,55,12.40
2010,07,07,03,56,12.30
2010,07,07,03,57,12.30
2010,07,07,03,58,12.30
2010,07,07,03,59,12.30
2010,07,07,04,00,12.30
2010,07,07,04,01,12.30
2010,07,07,04,02,12.30
2010,07,07,04,03,12.30
2010,07,07,04,04,12.30
2010,07,07,04,05,12.30
2010,07,07,04,06,12.30
2010,07,07,04,07,12.20
2010,07,07,04,08,12.20
2010,07,07,04,09,12.20
2010,07,07,04,10,12.20
2010,07,07,04,11,12.20
2010,07,07,04,12,12.20
2010,07,07,04,13,12.20
2010,07,07,04,14,12.20
2010,07,07,04,15,12.20
2010,07,07,04,16,12.20
2010,07,07,04,17,12.20
2010,07,07,04,18,12.20
2010,07,07,04,19,12.20
2010,07,07,04,20,12.20
2010,07,07,04,21,12.20
2010,07,07,04,22,12.20
2010,07,07,04,23,12.20
2010,07,07,04,24,12.20
2010,07,07,04,25,12.20
2010,07,07,04,26,12.20
2010,07,07,04,27,12.20
2010,07,07,04,28,12.20
2010,07,07,04,29,12.20
2010,07,07,04,30,12.20
2010,07,07,04,31,12.20
2010,07,07,04,32,12.20
2010,07,07,04,33,12.20
2010,07,07,04,34,12.10
2010,07,07,04,35,12.10
2010,07,07,04,36,12.10
2010,07,07,04,37,12.10
2010,07,07,04,38,12.10
2010,07,07,04,39,12.10
2010,07,07,04,40,12.10
2010,07,07,04,41,12.10
2010,07,07,04,42,12.10
2010,07,07,04,43,12.10
2010,07,07,04,44,12.10
2010,07,07,04,45,12.10
2010,07,07,04,46,12.10
2010,07,07,04,47,12.10
2010,07,07,04,48,12.00
2010,07,07,04,49,12.00
2010,07,07,04,50,12.00
2010,07,07,04,51,12.00
2010,07,07,04,52,12.00
2010,07,07,04,53,12.00
2010,07,07,04,54,12.00
2010,07,07,04,55,12.00
2010,07,07,04,56,12.00
2010,07,07,04,57,12.00
2010,07,07,04,58,12.00
2010,07,07,04,59,12.00
2010,07,07,05,00,12.00
2010,07,07,05,01,12.00
2010,07,07,05,02,11.90
2010,07,07,05,03,11.90
2010,07,07,05,04,11.90
2010,07,07,05,05,11.90
2010,07,07,05,06,11.90
2010,07,07,05,07,11.90
2010,07,07,05,08,11.90
2010,07,07,05,09,11.90
2010,07,07,05,10,11.90
2010,07,07,05,11,11.90
2010,07,07,05,12,11.90
2010,07,07,05,13,11.90
2010,07,07,05,14,11.90
2010,07,07,05,15,11.90
2010,07,07,05,16,11.90
2010,07,07,05,17,11.80
2010,07,07,05,18,11.80
2010,07,07,05,19,11.80
2010,07,07,05,20,11.80
2010,07,07,05,21,11.80
2010,07,07,05,22,11.80
2010,07,07,05,23,11.80
2010,07,07,05,24,11.80
2010,07,07,05,25,11.80
2010,07,07,05,26,11.80
2010,07,07,05,27,11.80
2010,07,07,05,28,11.80
2010,07,07,05,29,11.80
2010,07,07,05,30,11.80
2010,07,07,05,31,11.80
2010,07,07,05,32,11.80
2010,07,07,05,33,11.80
2010,07,07,05,34,11.80
2010,07,07,05,35,11.80
2010,07,07,05,36,11.80
2010,07,07,05,37,11.80
2010,07,07,05,38,11.80
2010,07,07,05,39,11.80
2010,07,07,05,40,11.80
2010,07,07,05,41,11.70
2010,07,07,05,42,11.70
2010,07,07,05,43,11.70
2010,07,07,05,44,11.70
2010,07,07,05,45,11.70
2010,07,07,05,46,11.70
2010,07,07,05,47,11.70
2010,07,07,05,48,11.70
2010,07,07,05,49,11.70
2010,07,07,05,50,11.80
2010,07,07,05,51,11.80
2010,07,07,05,52,11.80
2010,07,07,05,53,11.80
2010,07,07,05,54,11.80
2010,07,07,05,55,11.80
2010,07,07,05,56,11.80
2010,07,07,05,57,11.80
2010,07,07,05,58,11.80
2010,07,07,05,59,11.80
2010,07,07,06,00,11.80
2010,07,07,06,01,11.80
2010,07,07,06,02,11.80
2010,07,07,06,03,11.70
2010,07,07,06,04,11.70
2010,07,07,06,05,11.70
2010,07,07,06,06,11.70
2010,07,07,06,07,11.70
2010,07,07,06,08,11.70
2010,07,07,06,09,11.70
2010,07,07,06,10,11.70
2010,07,07,06,11,11.70
2010,07,07,06,12,11.70
2010,07,07,06,13,11.70
2010,07,07,06,14,11.70
2010,07,07,06,15,11.70
2010,07,07,06,16,11.70
2010,07,07,06,17,11.70
2010,07,07,06,18,11.70
2010,07,07,06,19,11.80
2010,07,07,06,20,11.80
2010,07,07,06,21,11.80
2010,07,07,06,22,11.80
2010,07,07,06,23,11.80
2010,07,07,06,24,11.80
2010,07,07,06,25,11.80
2010,07,07,06,26,11.80
2010,07,07,06,27,11.80
2010,07,07,06,28,11.80
2010,07,07,06,29,11.80
2010,07,07,06,30,11.80
2010,07,07,06,31,11.80
2010,07,07,06,32,11.80
2010,07,07,06,33,11.80
2010,07,07,06,34,11.80
2010,07,07,06,35,11.80
2010,07,07,06,36,11.80
2010,07,07,06,37,11.80
2010,07,07,06,38,11.80
2010,07,07,06,39,11.80
2010,07,07,06,40,11.80
2010,07,07,06,41,11.90
2010,07,07,06,42,11.90
2010,07,07,06,43,11.90
2010,07,07,06,44,11.90
2010,07,07,06,45,11.90
2010,07,07,06,46,11.90
2010,07,07,06,47,11.90
2010,07,07,06,48,11.90
2010,07,07,06,49,12.00
2010,07,07,06,50,12.00
2010,07,07,06,51,12.00
2010,07,07,06,52,12.00
2010,07,07,06,53,12.00
2010,07,07,06,54,12.00
2010,07,07,06,55,12.10
2010,07,07,06,56,12.10
2010,07,07,06,57,12.10
2010,07,07,06,58,12.10
2010,07,07,06,59,12.10
2010,07,07,07,00,12.10
2010,07,07,07,01,12.10
2010,07,07,07,02,12.10
2010,07,07,07,03,12.10
2010,07,07,07,04,12.10
2010,07,07,07,05,12.10
2010,07,07,07,06,12.10
2010,07,07,07,07,12.10
2010,07,07,07,08,12.20
2010,07,07,07,09,12.20
2010,07,07,07,10,12.20
2010,07,07,07,11,12.20
2010,07,07,07,12,12.20
2010,07,07,07,13,12.20
2010,07,07,07,14,12.20
2010,07,07,07,15,12.30
2010,07,07,07,16,12.30
2010,07,07,07,17,12.30
2010,07,07,07,18,12.30
2010,07,07,07,19,12.30
2010,07,07,07,20,12.30
2010,07,07,07,21,12.40
2010,07,07,07,22,12.40
2010,07,07,07,23,12.40
2010,07,07,07,24,12.40
2010,07,07,07,25,12.50
2010,07,07,07,26,12.50
2010,07,07,07,27,12.50
2010,07,07,07,28,12.60
2010,07,07,07,29,12.60
2010,07,07,07,30,12.60
2010,07,07,07,31,12.60
2010,07,07,07,32,12.70
2010,07,07,07,33,12.70
2010,07,07,07,34,12.70
2010,07,07,07,35,12.70
2010,07,07,07,36,12.80
2010,07,07,07,37,12.80
2010,07,07,07,38,12.80
2010,07,07,07,39,12.80
2010,07,07,07,40,12.90
2010,07,07,07,41,12.90
2010,07,07,07,42,12.90
2010,07,07,07,43,13.00
2010,07,07,07,44,13.00
2010,07,07,07,45,13.10
2010,07,07,07,46,13.10
2010,07,07,07,47,13.10
2010,07,07,07,48,13.20
2010,07,07,07,49,13.20
2010,07,07,07,50,13.20
2010,07,07,07,51,13.30
2010,07,07,07,52,13.30
2010,07,07,07,53,13.30
2010,07,07,07,54,13.40
2010,07,07,07,55,13.40
2010,07,07,07,56,13.50
2010,07,07,07,57,13.50
2010,07,07,07,58,13.50
2010,07,07,07,59,13.60
2010,07,07,08,00,13.60
2010,07,07,08,01,13.70
2010,07,07,08,02,13.70
2010,07,07,08,03,13.80
2010,07,07,08,04,13.80
2010,07,07,08,05,13.90
2010,07,07,08,06,13.90
2010,07,07,08,07,14.00
2010,07,07,08,08,14.00
2010,07,07,08,09,14.10
2010,07,07,08,10,14.10
2010,07,07,08,11,14.20
2010,07,07,08,12,14.20
2010,07,07,08,13,14.30
2010,07,07,08,14,14.30
2010,07,07,08,15,14.40
2010,07,07,08,16,14.40
2010,07,07,08,17,14.50
2010,07,07,08,18,14.60
2010,07,07,08,19,14.60
2010,07,07,08,20,14.70
2010,07,07,08,21,14.80
2010,07,07,08,22,14.80
2010,07,07,08,23,14.90
2010,07,07,08,24,15.00
2010,07,07,08,25,15.00
2010,07,07,08,26,15.00
2010,07,07,08,27,15.00
2010,07,07,08,28,15.00
2010,07,07,08,29,15.00
2010,07,07,08,30,15.10
2010,07,07,08,31,15.20
2010,07,07,08,32,15.20
2010,07,07,08,33,15.30
2010,07,07,08,34,15.30
2010,07,07,08,35,15.40
2010,07,07,08,36,15.40
2010,07,07,08,37,15.50
2010,07,07,08,38,15.50
2010,07,07,08,39,15.60
2010,07,07,08,40,15.70
2010,07,07,08,41,15.70
2010,07,07,08,42,15.80
2010,07,07,08,43,15.80
2010,07,07,08,44,15.90
2010,07,07,08,45,15.90
2010,07,07,08,46,16.00
2010,07,07,08,47,16.00
2010,07,07,08,48,16.10
2010,07,07,08,49,16.10
2010,07,07,08,50,16.20
2010,07,07,08,51,16.20
2010,07,07,08,52,16.30
2010,07,07,08,53,16.40
2010,07,07,08,54,16.40
2010,07,07,08,55,16.50
2010,07,07,08,56,16.50
2010,07,07,08,57,16.60
2010,07,07,08,58,16.70
2010,07,07,08,59,16.70
2010,07,07,09,00,16.80
2010,07,07,09,01,16.80
2010,07,07,09,02,16.90
2010,07,07,09,03,16.90
2010,07,07,09,04,17.00
2010,07,07,09,05,17.00
2010,07,07,09,06,17.10
2010,07,07,09,07,17.10
2010,07,07,09,08,17.10
2010,07,07,09,09,17.20
2010,07,07,09,10,17.20
2010,07,07,09,11,17.30
2010,07,07,09,12,17.30
2010,07,07,09,13,17.40
2010,07,07,09,14,17.40
2010,07,07,09,15,17.50
2010,07,07,09,16,17.50
2010,07,07,09,17,17.60
2010,07,07,09,18,17.60
2010,07,07,09,19,17.70
2010,07,07,09,20,17.70
2010,07,07,09,21,17.70
2010,07,07,09,22,17.80
2010,07,07,09,23,17.80
2010,07,07,09,24,17.90
2010,07,07,09,25,17.90
2010,07,07,09,26,18.00
2010,07,07,09,27,18.00
2010,07,07,09,28,18.10
2010,07,07,09,29,18.10
2010,07,07,09,30,18.20
2010,07,07,09,31,18.20
2010,07,07,09,32,18.20
2010,07,07,09,33,18.20
2010,07,07,09,34,18.20
2010,07,07,09,35,18.30
2010,07,07,09,36,18.30
2010,07,07,09,37,18.30
2010,07,07,09,38,18.40
2010,07,07,09,39,18.40
2010,07,07,09,40,18.40
2010,07,07,09,41,18.50
2010,07,07,09,42,18.60
2010,07,07,09,43,18.60
2010,07,07,09,44,18.70
2010,07,07,09,45,18.70
2010,07,07,09,46,18.80
2010,07,07,09,47,18.90
2010,07,07,09,48,18.90
2010,07,07,09,49,19.00
2010,07,07,09,50,19.10
2010,07,07,09,51,19.10
2010,07,07,09,52,19.20
2010,07,07,09,53,19.20
2010,07,07,09,54,19.30
2010,07,07,09,55,19.30
2010,07,07,09,56,19.40
2010,07,07,09,57,19.50
2010,07,07,09,58,19.60
2010,07,07,09,59,19.60
2010,07,07,10,00,19.70
2010,07,07,10,01,19.70
2010,07,07,10,02,19.80
2010,07,07,10,03,19.90
2010,07,07,10,04,19.90
2010,07,07,10,05,20.00
2010,07,07,10,06,20.10
2010,07,07,10,07,20.10
2010,07,07,10,08,20.20
2010,07,07,10,09,20.30
2010,07,07,10,10,20.40
2010,07,07,10,11,20.40
2010,07,07,10,12,20.50
2010,07,07,10,13,20.50
2010,07,07,10,14,20.60
2010,07,07,10,15,20.60
2010,07,07,10,16,20.70
2010,07,07,10,17,20.80
2010,07,07,10,18,20.80
2010,07,07,10,19,20.80
2010,07,07,10,20,20.90
2010,07,07,10,21,20.90
2010,07,07,10,22,21.00
2010,07,07,10,23,21.00
2010,07,07,10,24,21.10
2010,07,07,10,25,21.10
2010,07,07,10,26,21.20
2010,07,07,10,27,21.20
2010,07,07,10,28,21.30
2010,07,07,10,29,21.30
2010,07,07,10,30,21.40
2010,07,07,10,31,21.40
2010,07,07,10,32,21.50
2010,07,07,10,33,21.50
2010,07,07,10,34,21.60
2010,07,07,10,35,21.60
2010,07,07,10,36,21.70
2010,07,07,10,37,21.70
2010,07,07,10,38,21.80
2010,07,07,10,39,21.80
2010,07,07,10,40,21.80
2010,07,07,10,41,21.80
2010,07,07,10,42,21.90
2010,07,07,10,43,21.90
2010,07,07,10,44,22.00
2010,07,07,10,45,22.10
2010,07,07,10,46,22.10
2010,07,07,10,47,22.20
2010,07,07,10,48,22.30
2010,07,07,10,49,22.30
2010,07,07,10,50,22.40
2010,07,07,10,51,22.50
2010,07,07,10,52,22.60
2010,07,07,10,53,22.70
2010,07,07,10,54,22.70
2010,07,07,10,55,22.80
2010,07,07,10,56,22.90
2010,07,07,10,57,23.10
2010,07,07,10,58,23.20
2010,07,07,10,59,23.30
2010,07,07,11,00,23.40
2010,07,07,11,01,23.50
2010,07,07,11,02,23.60
2010,07,07,11,03,23.70
2010,07,07,11,04,23.80
2010,07,07,11,05,23.90
2010,07,07,11,06,24.00
2010,07,07,11,07,24.10
2010,07,07,11,08,24.20
2010,07,07,11,09,24.30
2010,07,07,11,10,24.40
2010,07,07,11,11,24.50
2010,07,07,11,12,24.60
2010,07,07,11,13,24.60
2010,07,07,11,14,24.70
2010,07,07,11,15,24.70
2010,07,07,11,16,24.80
2010,07,07,11,17,24.80
2010,07,07,11,18,24.80
2010,07,07,11,19,24.90
2010,07,07,11,20,24.90
2010,07,07,11,21,25.00
2010,07,07,11,22,25.10
2010,07,07,11,23,25.10
2010,07,07,11,24,25.10
2010,07,07,11,25,25.20
2010,07,07,11,26,25.20
2010,07,07,11,27,25.20
2010,07,07,11,28,25.30
2010,07,07,11,29,25.30
2010,07,07,11,30,25.40
2010,07,07,11,31,25.40
2010,07,07,11,32,25.50
2010,07,07,11,33,25.50
2010,07,07,11,34,25.60
2010,07,07,11,35,25.70
2010,07,07,11,36,25.70
2010,07,07,11,37,25.80
2010,07,07,11,38,25.80
2010,07,07,11,39,25.90
2010,07,07,11,40,25.90
2010,07,07,11,41,25.90
2010,07,07,11,42,26.10
2010,07,07,11,43,26.10
2010,07,07,11,44,26.20
2010,07,07,11,45,26.30
2010,07,07,11,46,26.30
2010,07,07,11,47,26.40
2010,07,07,11,48,26.50
2010,07,07,11,49,26.60
2010,07,07,11,50,26.60
2010,07,07,11,51,26.70
2010,07,07,11,52,26.80
2010,07,07,11,53,26.90
2010,07,07,11,54,26.90
2010,07,07,11,55,27.00
2010,07,07,11,56,27.00
2010,07,07,11,57,27.10
2010,07,07,11,58,27.10
2010,07,07,11,59,27.10
2010,07,07,12,00,27.20
2010,07,07,12,01,27.20
2010,07,07,12,02,27.20
2010,07,07,12,03,27.30
2010,07,07,12,04,27.30
2010,07,07,12,05,27.30
2010,07,07,12,06,27.30
2010,07,07,12,07,27.30
2010,07,07,12,08,27.30
2010,07,07,12,09,27.30
2010,07,07,12,10,27.30
2010,07,07,12,11,27.30
2010,07,07,12,12,27.30
2010,07,07,12,13,27.30
2010,07,07,12,14,27.30
2010,07,07,12,15,27.30
2010,07,07,12,16,27.30
2010,07,07,12,17,27.30
2010,07,07,12,18,27.40
2010,07,07,12,19,27.40
2010,07,07,12,20,27.50
2010,07,07,12,21,27.60
2010,07,07,12,22,27.70
2010,07,07,12,23,27.80
2010,07,07,12,24,27.90
2010,07,07,12,25,28.00
2010,07,07,12,26,28.10
2010,07,07,12,27,28.20
2010,07,07,12,28,28.30
2010,07,07,12,29,28.40
2010,07,07,12,30,28.40
2010,07,07,12,31,28.40
2010,07,07,12,32,28.50
2010,07,07,12,33,28.50
2010,07,07,12,34,28.60
2010,07,07,12,35,28.60
2010,07,07,12,36,28.70
2010,07,07,12,37,28.60
2010,07,07,12,38,28.50
2010,07,07,12,39,28.40
2010,07,07,12,40,28.40
2010,07,07,12,41,28.40
2010,07,07,12,42,28.40
2010,07,07,12,43,28.40
2010,07,07,12,44,28.40
2010,07,07,12,45,28.40
2010,07,07,12,46,28.40
2010,07,07,12,47,28.40
2010,07,07,12,48,28.30
2010,07,07,12,49,28.20
2010,07,07,12,50,28.30
2010,07,07,12,51,28.20
2010,07,07,12,52,28.20
2010,07,07,12,53,28.30
2010,07,07,12,54,28.40
2010,07,07,12,55,28.50
2010,07,07,12,56,28.70
2010,07,07,12,57,28.80
2010,07,07,12,58,28.70
2010,07,07,12,59,28.70
2010,07,07,13,00,28.80
2010,07,07,13,01,28.90
2010,07,07,13,02,28.90
2010,07,07,13,03,28.90
2010,07,07,13,04,29.00
2010,07,07,13,05,29.10
2010,07,07,13,06,29.10
2010,07,07,13,07,29.10
2010,07,07,13,08,29.10
2010,07,07,13,09,29.00
2010,07,07,13,10,29.00
2010,07,07,13,11,28.90
2010,07,07,13,12,29.00
2010,07,07,13,13,29.10
2010,07,07,13,14,29.30
2010,07,07,13,15,29.30
2010,07,07,13,16,29.40
2010,07,07,13,17,29.50
2010,07,07,13,18,29.50
2010,07,07,13,19,29.60
2010,07,07,13,20,29.60
2010,07,07,13,21,29.60
2010,07,07,13,22,29.60
2010,07,07,13,23,29.70
2010,07,07,13,24,29.70
2010,07,07,13,25,29.80
2010,07,07,13,26,29.90
2010,07,07,13,27,30.00
2010,07,07,13,28,30.10
2010,07,07,13,29,30.10
2010,07,07,13,30,30.10
2010,07,07,13,31,30.20
2010,07,07,13,32,30.30
2010,07,07,13,33,30.40
2010,07,07,13,34,30.40
2010,07,07,13,35,30.40
2010,07,07,13,36,30.30
2010,07,07,13,37,30.30
2010,07,07,13,38,30.30
2010,07,07,13,39,30.40
2010,07,07,13,40,30.40
2010,07,07,13,41,30.50
2010,07,07,13,42,30.50
2010,07,07,13,43,30.50
2010,07,07,13,44,30.60
2010,07,07,13,45,30.60
2010,07,07,13,46,30.60
2010,07,07,13,47,30.60
2010,07,07,13,48,30.60
2010,07,07,13,49,30.60
2010,07,07,13,50,30.60
2010,07,07,13,51,30.70
2010,07,07,13,52,30.70
2010,07,07,13,53,30.60
2010,07,07,13,54,30.60
2010,07,07,13,55,30.60
2010,07,07,13,56,30.60
2010,07,07,13,57,30.60
2010,07,07,13,58,30.60
2010,07,07,13,59,30.70
2010,07,07,14,00,30.80
2010,07,07,14,01,30.80
2010,07,07,14,02,31.00
2010,07,07,14,03,31.20
2010,07,07,14,04,31.40
2010,07,07,14,05,31.50
2010,07,07,14,06,31.60
2010,07,07,14,07,31.70
2010,07,07,14,08,31.70
2010,07,07,14,09,31.80
2010,07,07,14,10,31.80
2010,07,07,14,11,31.80
2010,07,07,14,12,31.80
2010,07,07,14,13,31.90
2010,07,07,14,14,31.90
2010,07,07,14,15,32.00
2010,07,07,14,16,32.10
2010,07,07,14,17,32.10
2010,07,07,14,18,32.00
2010,07,07,14,19,32.00
2010,07,07,14,20,32.00
2010,07,07,14,21,32.00
2010,07,07,14,22,32.10
2010,07,07,14,23,32.20
2010,07,07,14,24,32.30
2010,07,07,14,25,32.40
2010,07,07,14,26,32.40
2010,07,07,14,27,32.50
2010,07,07,14,28,32.50
2010,07,07,14,29,32.40
2010,07,07,14,30,32.40
2010,07,07,14,31,32.30
2010,07,07,14,32,32.20
2010,07,07,14,33,32.10
2010,07,07,14,34,32.10
2010,07,07,14,35,32.00
2010,07,07,14,36,32.10
2010,07,07,14,37,32.10
2010,07,07,14,38,32.20
2010,07,07,14,39,32.20
2010,07,07,14,40,32.20
2010,07,07,14,41,32.20
2010,07,07,14,42,32.10
2010,07,07,14,43,32.10
2010,07,07,14,44,32.00
2010,07,07,14,45,32.10
2010,07,07,14,46,32.10
2010,07,07,14,47,32.10
2010,07,07,14,48,32.10
2010,07,07,14,49,32.10
2010,07,07,14,50,32.10
2010,07,07,14,51,32.10
2010,07,07,14,52,32.20
2010,07,07,14,53,32.30
2010,07,07,14,54,32.40
2010,07,07,14,55,32.40
2010,07,07,14,56,32.40
2010,07,07,14,57,32.50
2010,07,07,14,58,32.50
2010,07,07,14,59,32.60
2010,07,07,15,00,32.60
2010,07,07,15,01,32.70
2010,07,07,15,02,32.70
2010,07,07,15,03,32.70
2010,07,07,15,04,32.70
2010,07,07,15,05,32.70
2010,07,07,15,06,32.70
2010,07,07,15,07,32.70
2010,07,07,15,08,32.70
2010,07,07,15,09,32.70
2010,07,07,15,10,32.60
2010,07,07,15,11,32.60
2010,07,07,15,12,32.60
2010,07,07,15,13,32.70
2010,07,07,15,14,32.60
2010,07,07,15,15,32.50
2010,07,07,15,16,32.40
2010,07,07,15,17,32.30
2010,07,07,15,18,32.30
2010,07,07,15,19,32.20
2010,07,07,15,20,32.20
2010,07,07,15,21,32.20
2010,07,07,15,22,32.20
2010,07,07,15,23,32.20
2010,07,07,15,24,32.30
2010,07,07,15,25,32.40
2010,07,07,15,26,32.50
2010,07,07,15,27,32.60
2010,07,07,15,28,32.60
2010,07,07,15,29,32.70
2010,07,07,15,30,32.80
2010,07,07,15,31,32.90
2010,07,07,15,32,33.00
2010,07,07,15,33,33.00
2010,07,07,15,34,33.10
2010,07,07,15,35,33.10
2010,07,07,15,36,33.10
2010,07,07,15,37,33.10
2010,07,07,15,38,33.20
2010,07,07,15,39,33.20
2010,07,07,15,40,33.20
2010,07,07,15,41,33.10
2010,07,07,15,42,33.00
2010,07,07,15,43,33.00
2010,07,07,15,44,33.00
2010,07,07,15,45,33.00
2010,07,07,15,46,32.90
2010,07,07,15,47,33.00
2010,07,07,15,48,33.00
2010,07,07,15,49,33.00
2010,07,07,15,50,33.10
2010,07,07,15,51,33.20
2010,07,07,15,52,33.20
2010,07,07,15,53,33.20
2010,07,07,15,54,33.20
2010,07,07,15,55,33.20
2010,07,07,15,56,33.20
2010,07,07,15,57,33.10
2010,07,07,15,58,33.10
2010,07,07,15,59,33.00
2010,07,07,16,00,32.90
2010,07,07,16,01,32.90
2010,07,07,16,02,32.90
2010,07,07,16,03,32.90
2010,07,07,16,04,32.90
2010,07,07,16,05,32.90
2010,07,07,16,06,32.90
2010,07,07,16,07,32.90
2010,07,07,16,08,32.90
2010,07,07,16,09,33.00
2010,07,07,16,10,33.00
2010,07,07,16,11,33.10
2010,07,07,16,12,33.10
2010,07,07,16,13,33.20
2010,07,07,16,14,33.20
2010,07,07,16,15,33.30
2010,07,07,16,16,33.40
2010,07,07,16,17,33.40
2010,07,07,16,18,33.50
2010,07,07,16,19,33.60
2010,07,07,16,20,33.60
2010,07,07,16,21,33.70
2010,07,07,16,22,33.80
2010,07,07,16,23,33.80
2010,07,07,16,24,33.80
2010,07,07,16,25,33.90
2010,07,07,16,26,33.90
2010,07,07,16,27,33.80
2010,07,07,16,28,33.80
2010,07,07,16,29,33.80
2010,07,07,16,30,33.80
2010,07,07,16,31,33.80
2010,07,07,16,32,33.60
2010,07,07,16,33,33.60
2010,07,07,16,34,33.60
2010,07,07,16,35,33.60
2010,07,07,16,36,33.50
2010,07,07,16,37,33.50
2010,07,07,16,38,33.50
2010,07,07,16,39,33.50
2010,07,07,16,40,33.40
2010,07,07,16,41,33.40
2010,07,07,16,42,33.30
2010,07,07,16,43,33.30
2010,07,07,16,44,33.30
2010,07,07,16,45,33.30
2010,07,07,16,46,33.30
2010,07,07,16,47,33.30
2010,07,07,16,48,33.30
2010,07,07,16,49,33.30
2010,07,07,16,50,33.30
2010,07,07,16,51,33.20
2010,07,07,16,52,33.20
2010,07,07,16,53,33.20
2010,07,07,16,54,33.20
2010,07,07,16,55,33.10
2010,07,07,16,56,33.10
2010,07,07,16,57,33.10
2010,07,07,16,58,33.10
2010,07,07,16,59,33.10
2010,07,07,17,00,33.10
2010,07,07,17,01,33.20
2010,07,07,17,02,33.20
2010,07,07,17,03,33.20
2010,07,07,17,04,33.10
2010,07,07,17,05,33.10
2010,07,07,17,06,33.10
2010,07,07,17,07,33.00
2010,07,07,17,08,32.90
2010,07,07,17,09,32.80
2010,07,07,17,10,32.70
2010,07,07,17,11,32.70
2010,07,07,17,12,32.70
2010,07,07,17,13,32.70
2010,07,07,17,14,32.70
2010,07,07,17,15,32.70
2010,07,07,17,16,32.60
2010,07,07,17,17,32.60
2010,07,07,17,18,32.50
2010,07,07,17,19,32.50
2010,07,07,17,20,32.40
2010,07,07,17,21,32.40
2010,07,07,17,22,32.40